Tracking 19419 objects as of 17-Dec-2018
HD Live streaming from Space Station
objects crossing your sky now

EXPLORER 11

Track EXPLORER 11 now!
10-day predictions
EXPLORER 11 is classified as:


NORAD ID: 107
Int'l Code: 1961-013A
Perigee: 474.2 km
Apogee: 1,267.8 km
Inclination: 28.8 °
Period: 102.2 minutes
Semi major axis: 7241 km
RCS: 0.4708 m2 (medium)
Launch date: April 27, 1961
Source: United States (US)
Launch site: AIR FORCE EASTERN TEST RANGE (AFETR)
aabbcc
Your satellite tracking list
Your tracking list is empty




NASA's NSSDC Master Catalog

Two Line Element Set (TLE):
1   107U 61013A   18351.19134947  .00000272  00000-0  17303-4 0  9994
2   107  28.7883  37.2411 0547925 124.8243 240.5120 14.08695085888396
Source of the keplerian elements: AFSPC